Location: Oslo
(59.9170°N, 10.7500°E)
Time: 18:15:01
(UTC+02:00)

ISS - Pass Details

Date: 31 March 2019
Orbit: 408 x 410 km, 51.6° (Epoch: 20 April)

Event Time Altitude Azimuth Distance (km) Brightness Sun altitude
Rises 21:00:14 0° 253° (WSW) 2,341 0.9 -8.3°
Maximum altitude 21:05:07 19° 188° (S) 1,056 -1.9 -8.9°
Enters shadow 21:07:24 11° 143° (SE) 1,439 -1.6 -9.2°
